This is the latest recevied weather packets stored in our database for station/object W0SS-13. If no packets are shown the sender has not sent any weather packets the latest 10 day(s).
| Time | Temp. | Humidity | Pressure | Rain* | Wind** | Luminosity | Snow |
|---|---|---|---|---|---|---|---|
| 1777221486 | 22.22° C | 65% | 1009.9 hPa | 0 mm | - | 402 W/m² | - |
| 1777221184 | 22.78° C | 66% | 1010.2 hPa | 0 mm | - | 844 W/m² | - |
| 1777220879 | 22.22° C | 66% | 1010.3 hPa | 0 mm | - | 726 W/m² | - |
| 1777220575 | 22.22° C | 66% | 1010.3 hPa | 0 mm | - | 709 W/m² | - |
| 1777220271 | 22.78° C | 66% | 1010.5 hPa | 0 mm | - | 626 W/m² | - |
| 1777219966 | 22.22° C | 65% | 1010.7 hPa | 0 mm | - | 617 W/m² | - |
| 1777219664 | 22.22° C | 64% | 1010.6 hPa | 0 mm | - | 610 W/m² | - |
| 1777219361 | 22.22° C | 64% | 1010.8 hPa | 0 mm | - | 615 W/m² | - |
| 1777219057 | 22.22° C | 65% | 1010.8 hPa | 0 mm | - | 642 W/m² | - |
| 1777218753 | 21.67° C | 68% | 1010.7 hPa | 0 mm | - | 634 W/m² | - |
| 1777218448 | 21.67° C | 65% | 1010.8 hPa | 0 mm | - | 607 W/m² | - |
| 1777218144 | 21.67° C | 66% | 1010.9 hPa | 0 mm | - | 616 W/m² | - |
| 1777217841 | 21.67° C | 66% | 1010.9 hPa | 0 mm | - | 600 W/m² | - |
| 1777217536 | 21.11° C | 68% | 1011.1 hPa | 0 mm | - | 583 W/m² | - |
| 1777217233 | 21.11° C | 68% | 1011.2 hPa | 0 mm | - | 569 W/m² | - |
| 1777216929 | 21.11° C | 68% | 1011 hPa | 0 mm | - | 558 W/m² | - |
| 1777216625 | 21.11° C | 68% | 1011.2 hPa | 0 mm | - | 542 W/m² | - |
| 1777216322 | 20.56° C | 70% | 1011.2 hPa | 0 mm | - | 532 W/m² | - |
| 1777216020 | 20.56° C | 71% | 1011.1 hPa | 0 mm | - | 517 W/m² | - |
| 1777215715 | 20.56° C | 69% | 1010.9 hPa | 0 mm | - | 511 W/m² | - |
| 1777215410 | 20° C | 70% | 1010.7 hPa | 0 mm | - | 501 W/m² | - |
| 1777215103 | 20° C | 71% | 1010.7 hPa | 0 mm | - | 459 W/m² | - |
| 1777214797 | 20° C | 71% | 1011.1 hPa | 0 mm | - | 420 W/m² | - |
| 1777214497 | 20° C | 70% | 1011 hPa | 0 mm | - | 190 W/m² | - |
| 1777214192 | 19.44° C | 71% | 1010.8 hPa | 0 mm | - | 463 W/m² | - |
* Rain latest hour (hover to see other rain measurements)
** Current wind speed in m/s (hover to see current wind gust speed)